DLH429 EDDH-EDDF

Flight info

Callsign DLH429
Flight time N/A
Altitude 30000
Route AMLUH2C/05 AMLUH M852 DENIX DCT RIMET/N0447F310 T157 KOKEB/N0402F230 T157 KERAX KERAX5D
Aircraft A320/M-SDE3FGHIRWY/LB1

Departure

Time 2026-04-20 14:12
Airport Hamburg Helmut Schmidt Airport (EDDH)

Arrival

Time N/A
Airport Frankfurt Main Airport (EDDF)
Time Latitude Longitude Altitude Speed Heading
2026-04-20 13:33 53.63007 10.00359 46 ft 0 kts 122°
2026-04-20 14:01 53.63015 10.00338 48 ft 4 kts 122°
2026-04-20 14:01 53.63030 10.00299 49 ft 4 kts 122°
2026-04-20 14:01 53.63041 10.00268 50 ft 4 kts 127°
2026-04-20 14:02 53.63057 10.00251 47 ft 4 kts 201°
2026-04-20 14:02 53.63058 10.00249 48 ft 4 kts 212°
2026-04-20 14:02 53.63046 10.00236 47 ft 0 kts 212°
2026-04-20 14:05 53.63045 10.00235 48 ft 2 kts 212°
2026-04-20 14:05 53.63001 10.00189 51 ft 9 kts 213°
2026-04-20 14:05 53.62976 10.00162 51 ft 5 kts 212°
2026-04-20 14:05 53.62938 10.00122 51 ft 8 kts 212°
2026-04-20 14:06 53.62889 10.00069 50 ft 9 kts 214°
2026-04-20 14:06 53.62840 9.99999 50 ft 9 kts 215°
2026-04-20 14:06 53.62788 9.99944 48 ft 8 kts 209°
2026-04-20 14:06 53.62735 9.99895 49 ft 11 kts 207°
2026-04-20 14:07 53.62671 9.99839 47 ft 9 kts 213°
2026-04-20 14:07 53.62640 9.99762 50 ft 7 kts 255°
2026-04-20 14:07 53.62633 9.99702 48 ft 4 kts 259°
2026-04-20 14:07 53.62629 9.99661 50 ft 6 kts 258°
2026-04-20 14:08 53.62614 9.99540 50 ft 11 kts 258°
2026-04-20 14:08 53.62600 9.99423 50 ft 9 kts 261°
2026-04-20 14:08 53.62583 9.99268 51 ft 18 kts 260°
2026-04-20 14:08 53.62561 9.99070 51 ft 17 kts 259°
2026-04-20 14:09 53.62540 9.98888 51 ft 15 kts 259°
2026-04-20 14:09 53.62521 9.98722 49 ft 14 kts 258°
2026-04-20 14:09 53.62504 9.98572 51 ft 12 kts 259°
2026-04-20 14:09 53.62486 9.98424 51 ft 17 kts 258°
2026-04-20 14:10 53.62459 9.98205 50 ft 19 kts 264°
2026-04-20 14:10 53.62436 9.98000 50 ft 17 kts 257°
2026-04-20 14:10 53.62435 9.97854 49 ft 10 kts 296°
2026-04-20 14:10 53.62485 9.97760 46 ft 11 kts 322°
2026-04-20 14:11 53.62528 9.97802 47 ft 0 kts 51°
2026-04-20 14:11 53.62569 9.97887 48 ft 36 kts 50°
2026-04-20 14:11 53.62889 9.98524 49 ft 103 kts 50°
2026-04-20 14:11 53.63428 9.99619 412 ft 123 kts 50°
2026-04-20 14:12 53.63970 10.00714 1175 ft 123 kts 50°
2026-04-20 14:12 53.64555 10.01889 1608 ft 142 kts 49°
2026-04-20 14:12 53.65239 10.03273 1914 ft 166 kts 50°
2026-04-20 14:12 53.66020 10.04872 2270 ft 187 kts 51°
2026-04-20 14:13 53.66883 10.06626 2921 ft 195 kts 52°
2026-04-20 14:13 53.67741 10.08360 3924 ft 190 kts 52°
2026-04-20 14:13 53.68611 10.10117 4625 ft 200 kts 52°
2026-04-20 14:13 53.69495 10.11937 5444 ft 201 kts 52°
2026-04-20 14:14 53.70359 10.13795 6247 ft 202 kts 60°
2026-04-20 14:14 53.70767 10.16078 6923 ft 208 kts 88°
2026-04-20 14:14 53.70417 10.18478 7567 ft 220 kts 116°
2026-04-20 14:14 53.69256 10.20377 7928 ft 254 kts 151°
2026-04-20 14:15 53.67494 10.21324 8463 ft 273 kts 160°
2026-04-20 14:15 53.65637 10.22145 9295 ft 278 kts 160°
2026-04-20 14:15 53.63753 10.22957 10192 ft 281 kts 161°
2026-04-20 14:15 53.61811 10.23803 10634 ft 299 kts 161°
2026-04-20 14:16 53.59716 10.24733 10890 ft 323 kts 161°
2026-04-20 14:16 53.57476 10.25733 11228 ft 341 kts 161°
2026-04-20 14:16 53.55158 10.26767 11865 ft 348 kts 162°
2026-04-20 14:16 53.52796 10.27820 12519 ft 354 kts 162°
2026-04-20 14:17 53.50424 10.28876 13186 ft 360 kts 162°
2026-04-20 14:17 53.47987 10.29963 13874 ft 365 kts 162°
2026-04-20 14:17 53.45519 10.31067 14491 ft 370 kts 162°
2026-04-20 14:17 53.43022 10.32188 15129 ft 373 kts 162°
2026-04-20 14:18 53.40504 10.33322 15761 ft 377 kts 162°
2026-04-20 14:18 53.37958 10.34473 16347 ft 381 kts 162°
2026-04-20 14:18 53.35386 10.35634 16938 ft 385 kts 162°
2026-04-20 14:18 53.32783 10.36806 17534 ft 389 kts 162°
2026-04-20 14:19 53.30155 10.37985 18138 ft 393 kts 162°
2026-04-20 14:19 53.27508 10.39175 18706 ft 395 kts 162°
2026-04-20 14:19 53.24841 10.40371 19244 ft 398 kts 162°
2026-04-20 14:19 53.22159 10.41568 19762 ft 401 kts 162°
2026-04-20 14:20 53.19454 10.42775 20274 ft 404 kts 162°
2026-04-20 14:20 53.16733 10.43990 20789 ft 407 kts 162°
2026-04-20 14:20 53.13964 10.45057 21283 ft 411 kts 169°
2026-04-20 14:20 53.11092 10.45403 21770 ft 417 kts 179°
2026-04-20 14:21 53.08190 10.45070 22241 ft 420 kts 183°
2026-04-20 14:21 53.05267 10.44651 22731 ft 423 kts 183°
2026-04-20 14:21 53.02324 10.44240 23212 ft 425 kts 183°
2026-04-20 14:21 52.99366 10.43835 23674 ft 428 kts 183°
2026-04-20 14:22 52.96386 10.43434 24062 ft 431 kts 183°
2026-04-20 14:22 52.93395 10.43032 24449 ft 433 kts 183°
2026-04-20 14:22 52.90383 10.42621 24822 ft 435 kts 183°
2026-04-20 14:22 52.87356 10.42203 25191 ft 437 kts 183°
2026-04-20 14:23 52.84317 10.41783 25555 ft 440 kts 183°
2026-04-20 14:23 52.81259 10.41366 25921 ft 442 kts 183°
2026-04-20 14:23 52.78189 10.40949 26293 ft 444 kts 182°
2026-04-20 14:23 52.75108 10.40534 26683 ft 445 kts 182°
2026-04-20 14:24 52.72018 10.40119 27052 ft 447 kts 182°
2026-04-20 14:24 52.68909 10.39705 27416 ft 449 kts 182°
2026-04-20 14:24 52.65827 10.39292 27779 ft 451 kts 182°
2026-04-20 14:24 52.62692 10.38868 28125 ft 453 kts 182°
2026-04-20 14:25 52.59541 10.38442 28456 ft 455 kts 182°
2026-04-20 14:25 52.56379 10.38014 28765 ft 457 kts 182°
2026-04-20 14:25 52.53202 10.37587 29129 ft 458 kts 182°
2026-04-20 14:25 52.50025 10.37159 29512 ft 458 kts 182°
2026-04-20 14:26 52.46847 10.36730 29859 ft 459 kts 182°
2026-04-20 14:26 52.43667 10.36302 30132 ft 458 kts 182°
2026-04-20 14:26 52.37396 10.35463 30163 ft 450 kts 182°
2026-04-20 14:27 52.31167 10.34644 30168 ft 449 kts 182°
2026-04-20 14:27 52.24957 10.33831 30162 ft 447 kts 182°
2026-04-20 14:28 52.18755 10.33007 30163 ft 447 kts 182°
2026-04-20 14:28 52.13604 10.32321 30160 ft 447 kts 182°
2026-04-20 14:29 52.07404 10.31496 30158 ft 447 kts 182°
2026-04-20 14:29 52.01219 10.30681 30175 ft 445 kts 182°
2026-04-20 14:30 51.95048 10.29881 30179 ft 444 kts 182°
2026-04-20 14:30 51.88880 10.29087 30172 ft 445 kts 182°
2026-04-20 14:31 51.82700 10.28289 30151 ft 446 kts 182°
2026-04-20 14:31 51.76521 10.27493 30159 ft 445 kts 182°
2026-04-20 14:32 51.70346 10.26691 30160 ft 445 kts 182°
2026-04-20 14:32 51.64178 10.25891 30154 ft 445 kts 183°
2026-04-20 14:33 51.58008 10.25103 30154 ft 445 kts 183°
2026-04-20 14:33 51.51842 10.24303 30144 ft 444 kts 183°
2026-04-20 14:34 51.45686 10.23505 30144 ft 444 kts 183°
2026-04-20 14:34 51.39524 10.22724 30137 ft 444 kts 183°
2026-04-20 14:35 51.33366 10.21949 30131 ft 444 kts 184°
2026-04-20 14:35 51.27193 10.21579 30133 ft 444 kts 180°
2026-04-20 14:36 51.21011 10.21588 30129 ft 444 kts 179°
2026-04-20 14:36 51.14825 10.21584 30125 ft 444 kts 180°
2026-04-20 14:37 51.08636 10.21480 30115 ft 445 kts 181°
2026-04-20 14:37 51.02431 10.21359 30110 ft 446 kts 181°
2026-04-20 14:38 50.96215 10.21228 30109 ft 447 kts 181°
2026-04-20 14:38 50.89987 10.21115 30113 ft 448 kts 181°
2026-04-20 14:39 50.83887 10.19770 30103 ft 444 kts 205°
2026-04-20 14:39 50.81111 10.17631 29747 ft 442 kts 211°
2026-04-20 14:39 50.78603 10.14887 28179 ft 439 kts 223°
2026-04-20 14:40 50.76652 10.11277 26779 ft 438 kts 238°
2026-04-20 14:40 50.75220 10.06971 25455 ft 437 kts 244°
2026-04-20 14:40 50.73906 10.02733 24305 ft 434 kts 243°
2026-04-20 14:40 50.72577 9.98482 23152 ft 430 kts 242°
2026-04-20 14:41 50.71232 9.94236 22057 ft 424 kts 242°
2026-04-20 14:41 50.69928 9.90166 21070 ft 418 kts 242°
2026-04-20 14:41 50.68605 9.86065 20142 ft 411 kts 242°
2026-04-20 14:41 50.67327 9.82119 19280 ft 410 kts 242°
2026-04-20 14:42 50.66035 9.78139 18758 ft 406 kts 242°
2026-04-20 14:42 50.64755 9.74194 18217 ft 402 kts 242°
2026-04-20 14:42 50.63268 9.70517 17661 ft 396 kts 229°
2026-04-20 14:42 50.61320 9.67496 17069 ft 392 kts 217°
2026-04-20 14:43 50.59012 9.65267 16550 ft 387 kts 204°
2026-04-20 14:43 50.56526 9.63712 16039 ft 383 kts 200°
2026-04-20 14:43 50.54042 9.62209 15496 ft 381 kts 201°
2026-04-20 14:43 50.51591 9.60646 14943 ft 380 kts 207°
2026-04-20 14:44 50.49397 9.58383 14463 ft 375 kts 221°
2026-04-20 14:44 50.47640 9.55401 14032 ft 369 kts 236°
2026-04-20 14:44 50.46392 9.51943 13546 ft 361 kts 249°
2026-04-20 14:44 50.45620 9.48224 13160 ft 357 kts 256°
2026-04-20 14:45 50.44917 9.44480 13101 ft 358 kts 256°
2026-04-20 14:45 50.44207 9.40733 13113 ft 359 kts 255°
2026-04-20 14:45 50.43494 9.36982 13117 ft 358 kts 254°
2026-04-20 14:45 50.42797 9.33342 13116 ft 339 kts 256°
2026-04-20 14:46 50.42133 9.29888 13110 ft 323 kts 256°
2026-04-20 14:46 50.41277 9.26720 13114 ft 310 kts 241°
2026-04-20 14:46 50.39993 9.24098 12759 ft 302 kts 225°
2026-04-20 14:46 50.38330 9.22118 12440 ft 300 kts 213°
2026-04-20 14:47 50.36553 9.20415 12088 ft 299 kts 212°
2026-04-20 14:47 50.35024 9.18944 11799 ft 298 kts 214°
2026-04-20 14:47 50.33209 9.17190 11455 ft 296 kts 213°
2026-04-20 14:48 50.29727 9.13829 11114 ft 293 kts 213°
2026-04-20 14:48 50.28091 9.11937 11114 ft 291 kts 227°
2026-04-20 14:48 50.26847 9.09485 11122 ft 287 kts 242°
2026-04-20 14:48 50.26042 9.06657 11123 ft 285 kts 252°
2026-04-20 14:49 50.25367 9.03747 11119 ft 284 kts 252°
2026-04-20 14:49 50.24703 9.00910 11116 ft 271 kts 251°
2026-04-20 14:49 50.24066 8.98209 11119 ft 258 kts 252°
2026-04-20 14:49 50.23858 8.97330 11119 ft 255 kts 253°